Location: Cormont
(50.5693°N, 1.7416°E)
Time: 20:37:48
(UTC+00:00)

Cosmos 1535 Rocket - Pass Details

Date: 21 October 2019
Orbit: 947 x 1005 km, 83.0° (Epoch: 19 November)

Event Time Altitude Azimuth Distance (km) Brightness Sun altitude
Rises 17:16:16 0° 351° (N) 3,680 7.5 -4.9°
Reaches altitude 10° 17:18:49 10° 354° (N) 2,721 6.8 -5.3°
Maximum altitude 17:25:01 68° 78° (ENE) 1,029 4.5 -6.3°
Drops below altitude 10° 17:31:06 10° 161° (SSE) 2,672 6.7 -7.3°
Sets 17:33:36 0° 164° (SSE) 3,609 7.4 -7.7°
